Location: Waco, TX
(31.5480°N, 97.1670°W)
Time: 09:51:47
(UTC-05:00)

ISS - Pass Details

Date: 17 June 2018
Orbit: 402 x 406 km, 51.6° (Epoch: 20 June)

Event Time Altitude Azimuth Distance (km) Brightness Sun altitude
Rises 10:41:25 0° 224° (SW) 2,311 -0.2 52.0°
Reaches altitude 10° 10:43:29 10° 224° (SW) 1,455 -1.2 52.5°
Maximum altitude 10:46:44 89° 301° (WNW) 409 -2.8 53.2°
Drops below altitude 10° 10:50:02 10° 45° (NE) 1,462 -0.5 53.9°
Sets 10:52:07 0° 45° (NE) 2,325 0.4 54.3°
